Theta_e
330 328 328 329 331 331 330 327 324 327 329 330 330 330 330 331 332 333 334 332 331 333 334 334 334 334 335 335 334 335 335 336 336 334 333 332 332 331 330 328 326 325 325 325 326 327 327 327 328 327 327 327 326 326 324 322 319 317 315 313 312 311 311 311 310 310 313 316 319 321 321 322 323 325 326 326 327 326 326 327 328 329 330 331 330
333 333 333 332 332 331 330 329 329 331 331 330 331 331 330 330 333 334 335 332 329 331 333 334 334 334 334 335 334 335 336 336 335 333 332 331 331 330 329 327 325 323 323 322 322 324 325 325 325 324 323 322 320 319 316 313 311 308 306 305 303 303 303 303 303 304 305 307 311 315 317 317 317 318 320 322 324 325 326 326 327 327 329 330 330
336 335 334 333 333 332 332 333 331 332 333 332 331 331 331 332 334 334 333 332 331 331 332 333 334 334 335 335 335 335 336 335 333 332 332 331 330 329 327 326 324 321 322 321 322 323 322 320 318 314 312 310 308 307 306 304 303 302 301 301 301 300 300 300 300 300 301 301 303 306 310 313 314 314 314 316 319 322 323 325 325 326 327 329 329
336 336 335 334 334 333 333 333 332 332 334 334 332 332 332 332 332 332 331 330 330 331 332 333 334 335 335 336 336 335 335 334 333 332 331 330 329 328 326 325 324 323 323 322 321 319 314 310 307 304 303 302 302 302 301 301 301 301 301 301 301 300 300 300 300 300 300 299 300 300 301 304 306 308 309 310 313 317 319 320 321 321 324 327 327
335 335 333 333 333 332 333 332 332 331 332 334 333 332 331 329 330 331 330 330 330 330 332 334 334 335 336 336 335 335 334 333 332 331 330 329 329 328 327 326 325 325 323 320 316 310 305 303 302 302 302 301 301 301 301 301 301 301 301 301 301 300 300 300 300 300 300 300 299 299 299 299 299 300 301 302 305 308 311 313 315 316 319 323 324
333 332 331 332 332 331 332 332 332 332 332 332 331 331 330 330 331 332 332 332 332 332 333 334 334 335 335 335 335 333 332 331 330 329 329 329 328 328 327 326 326 325 321 314 308 303 302 302 302 302 302 301 301 301 301 301 301 300 301 301 300 300 300 300 300 299 300 300 299 300 299 299 299 299 299 299 299 300 302 304 307 311 314 318 321
333 330 329 330 330 330 330 330 332 332 331 330 329 329 331 331 331 332 333 332 332 333 333 333 333 335 335 334 333 332 331 330 329 329 329 328 328 328 327 327 326 322 315 308 303 302 302 302 302 302 302 301 301 301 301 300 300 300 300 300 300 300 300 300 300 299 300 299 300 301 299 299 299 299 299 299 298 299 299 299 300 304 307 310 315
333 330 329 328 328 329 329 329 330 331 330 330 330 331 332 331 329 331 332 332 332 333 333 333 333 334 334 333 332 331 330 329 328 328 327 327 326 326 327 326 320 312 305 302 301 301 302 301 302 302 301 302 301 301 301 300 300 300 300 300 300 300 299 299 299 299 299 299 301 301 300 300 299 299 300 300 301 299 298 299 298 299 300 302 306
333 330 329 328 328 329 330 329 330 330 329 329 330 332 331 329 329 330 331 332 332 333 333 332 333 333 333 332 331 330 329 328 327 326 325 323 323 323 322 316 308 303 301 301 301 301 301 301 301 301 301 301 301 301 300 300 300 299 300 299 299 299 299 299 299 298 299 299 299 300 299 299 300 301 301 304 306 303 300 300 300 299 298 298 299
332 330 329 329 328 328 328 328 329 330 329 329 330 330 329 328 328 328 329 333 333 333 333 333 332 332 332 331 330 330 328 327 325 324 323 322 320 315 310 304 302 301 301 301 301 301 301 301 300 300 300 300 301 301 300 300 299 299 299 299 299 299 299 299 299 299 299 299 299 299 299 299 299 300 301 304 304 304 305 305 305 303 300 300 300
332 331 330 328 327 327 328 329 330 329 329 330 329 327 327 326 327 327 327 331 333 333 334 333 332 332 331 331 330 329 327 325 324 323 322 318 312 306 302 301 301 301 301 301 301 301 300 300 300 300 300 300 300 300 300 300 299 299 299 299 299 299 299 299 299 299 299 299 299 299 299 300 300 300 301 302 301 301 305 307 307 305 302 303 304
332 331 329 327 327 328 330 330 328 329 330 330 329 327 327 327 328 329 327 328 331 333 334 333 332 332 332 330 329 327 326 324 323 321 313 307 303 301 301 301 301 301 301 301 300 300 300 300 300 300 299 300 300 300 300 299 299 299 298 298 299 300 300 300 300 302 302 303 303 303 302 301 301 301 301 303 304 304 305 307 308 305 304 305 304
330 330 328 326 327 329 330 329 328 328 328 328 328 328 329 330 330 330 328 328 331 332 333 333 332 332 331 329 327 326 326 325 324 318 306 302 301 301 301 300 301 301 301 301 300 300 300 299 299 300 299 299 299 299 299 299 298 299 298 299 299 300 301 300 302 305 307 307 307 306 305 303 303 303 302 304 306 306 305 306 306 306 305 305 304
330 330 329 328 328 329 330 329 328 328 328 327 329 330 330 330 330 329 328 330 332 331 332 333 332 332 331 329 328 327 327 326 326 318 305 303 303 301 301 300 300 301 300 300 300 300 300 300 299 299 300 299 299 299 298 298 298 299 299 300 300 301 302 301 303 306 306 305 306 305 305 306 306 304 304 304 305 305 304 304 303 304 305 304 304
330 330 330 330 330 330 330 330 328 328 329 329 329 330 331 330 327 326 326 328 328 325 330 333 331 332 331 329 329 328 327 327 327 320 310 308 305 300 300 300 300 300 300 300 300 300 300 300 299 299 299 299 298 298 299 298 299 299 299 300 300 301 302 303 304 306 305 304 304 304 305 306 306 306 305 305 305 305 305 304 304 303 303 303 304
331 331 331 331 331 331 330 329 329 329 330 329 329 330 331 329 325 325 326 327 323 318 325 332 331 331 331 330 330 329 328 327 326 321 314 311 307 301 300 300 300 300 300 300 300 300 300 299 299 299 299 299 299 299 299 299 299 299 300 301 301 301 302 303 304 305 305 304 304 305 306 306 306 306 306 306 306 306 305 305 304 304 305 304 305
331 332 332 332 331 331 330 330 330 330 330 329 330 329 328 327 325 325 325 325 324 318 322 331 332 331 330 331 330 328 329 328 324 319 315 314 311 306 303 300 301 301 300 300 300 300 300 299 299 299 299 299 300 300 299 299 299 300 300 301 301 301 301 302 303 304 304 304 304 305 306 306 306 306 306 306 306 305 305 305 304 305 305 305 305
332 332 333 333 332 331 330 330 331 331 331 330 330 328 326 325 323 323 323 324 325 323 323 327 330 331 331 331 330 329 329 326 322 318 316 315 315 311 306 303 305 305 302 301 301 301 301 300 300 300 300 300 300 300 299 299 299 300 300 300 300 300 301 302 302 303 303 303 303 304 306 306 306 306 306 306 305 305 305 305 305 305 305 305 305
332 332 333 332 332 331 330 331 332 332 331 330 329 327 325 324 322 321 323 324 325 326 323 319 322 326 327 329 329 328 327 325 321 318 316 316 315 312 308 307 308 308 304 302 301 302 302 302 302 301 301 301 300 300 299 299 299 300 300 300 300 300 301 302 302 303 303 303 303 303 305 305 304 304 305 305 305 304 304 304 305 305 305 305 305
332 332 332 332 331 331 330 331 331 330 330 330 329 327 324 322 320 320 322 324 324 323 320 312 312 316 317 320 324 325 325 324 320 316 315 316 314 311 308 308 310 309 305 302 302 303 303 303 302 302 301 300 299 300 299 299 300 300 301 300 299 300 301 302 302 302 303 302 302 303 303 303 303 303 304 304 304 304 304 304 304 304 304 304 304
332 332 332 332 331 330 330 329 329 330 330 329 327 325 323 319 317 317 320 324 322 318 315 311 308 308 308 312 317 321 323 321 317 314 314 315 311 310 310 309 310 309 305 302 302 303 303 303 302 301 301 299 299 300 299 300 301 301 301 300 299 300 302 302 302 302 303 302 302 302 301 301 302 303 303 303 303 303 304 304 304 303 303 304 303
332 332 331 331 330 329 329 328 328 330 329 327 326 322 320 317 315 314 314 316 315 311 311 309 305 304 305 306 310 317 320 319 316 313 312 312 310 310 311 309 310 309 306 303 302 303 303 302 302 302 300 299 299 300 300 301 301 301 301 299 298 300 301 301 301 302 302 301 301 300 300 300 301 302 302 302 303 303 303 304 303 303 303 302 302
332 332 331 330 330 330 329 329 329 329 328 326 324 320 318 316 314 312 311 310 308 306 306 305 303 303 303 303 304 309 313 314 313 311 310 310 309 309 309 309 310 309 305 303 302 302 302 302 302 301 300 299 299 300 300 301 301 301 300 298 299 301 301 301 301 301 300 300 300 300 300 300 300 301 301 302 303 303 303 303 303 302 302 302 302
332 330 330 330 330 330 329 329 329 328 327 324 321 318 316 314 313 311 309 307 304 303 303 302 302 302 302 302 302 303 305 305 306 306 307 309 308 308 308 309 310 308 305 303 302 302 302 302 302 301 300 300 300 300 301 301 301 301 299 298 299 301 300 299 299 299 299 300 300 300 300 300 300 300 300 301 302 302 302 302 302 302 301 301 301
331 330 330 330 330 330 329 329 328 327 324 322 319 316 314 313 311 308 305 303 302 302 302 302 302 302 302 302 302 302 302 302 302 302 303 306 308 308 308 308 309 307 304 303 303 302 301 302 302 301 300 300 300 300 301 301 300 299 298 298 299 300 299 298 298 299 300 301 301 301 301 300 300 300 300 301 302 301 301 301 301 301 300 300 299
332 331 330 331 330 329 328 327 327 324 321 318 315 313 313 311 308 304 302 302 302 302 302 302 302 302 302 302 302 301 301 301 301 301 301 303 307 308 308 308 308 306 303 302 302 301 301 302 301 300 300 300 300 300 300 300 299 298 298 298 298 299 299 298 298 299 300 301 301 301 301 300 300 300 300 301 301 301 301 301 301 300 299 299 299
331 331 331 331 329 328 326 325 324 321 317 315 313 312 311 308 303 302 302 302 302 302 302 302 302 302 301 301 301 301 301 301 300 300 300 301 304 307 307 307 308 306 304 304 302 299 300 301 300 300 300 300 299 300 300 300 299 298 298 298 298 298 298 298 299 300 301 301 301 301 301 300 300 300 300 300 301 301 300 300 300 299 299 299 299
331 331 331 329 328 326 326 324 322 318 315 313 312 310 307 303 302 301 302 301 301 301 301 301 301 301 301 301 301 301 300 300 300 300 300 300 302 306 309 308 307 306 307 306 303 300 299 300 300 300 300 300 299 299 299 299 298 297 297 298 298 298 298 298 299 300 300 301 301 301 301 300 300 300 300 300 300 300 300 300 299 299 298 298 299
331 330 330 328 327 327 325 324 321 318 314 312 309 306 303 301 301 301 301 301 301 301 301 301 301 301 301 301 300 300 300 300 300 300 300 299 300 304 308 308 306 306 307 305 303 301 300 300 300 300 300 300 299 299 299 298 298 297 297 298 298 298 298 298 299 299 300 301 301 301 300 300 300 300 300 300 300 299 299 299 299 299 298 298 298
330 329 328 327 327 327 325 322 320 316 312 309 306 303 301 301 301 301 301 301 301 301 301 301 301 300 300 300 300 300 300 300 299 299 299 299 298 300 301 302 302 305 306 305 303 301 299 300 301 301 301 300 299 298 298 298 297 297 297 298 297 298 298 298 298 299 300 300 300 300 300 300 300 299 300 300 300 300 299 299 299 299 298 298 298
329 328 327 327 326 326 324 320 317 314 310 307 304 302 301 301 301 301 301 301 301 301 300 300 300 300 300 300 299 300 300 299 299 298 298 298 298 298 298 298 299 302 304 304 303 301 299 300 301 301 301 300 298 298 298 298 297 298 298 297 297 298 298 298 298 299 300 300 300 300 301 300 299 299 299 300 300 299 299 299 299 298 298 298 298
328 327 327 326 326 325 322 318 315 312 309 305 302 301 301 301 301 301 301 301 300 300 300 300 300 300 300 299 300 300 299 299 298 298 298 298 298 298 298 298 298 300 300 301 302 300 300 300 301 301 301 299 298 298 297 298 298 298 298 297 297 298 298 298 298 299 300 300 300 300 300 299 299 299 299 299 300 299 299 299 298 298 298 297 297
327 327 327 326 325 323 320 316 313 310 308 304 302 301 300 301 300 300 300 300 300 300 300 300 300 300 299 299 300 300 299 299 298 298 299 299 298 298 298 298 297 299 299 299 300 300 300 300 300 301 300 299 298 297 297 297 298 298 298 297 297 298 298 298 298 299 300 300 300 300 300 298 298 299 298 298 299 299 299 299 298 298 297 297 297
327 327 326 326 324 322 319 314 311 309 307 303 301 300 300 300 300 300 300 300 300 300 300 300 300 299 299 299 299 299 299 299 299 300 300 300 299 298 298 298 298 298 299 299 299 299 300 299 300 300 300 298 298 297 297 297 297 297 297 297 297 298 298 298 298 299 300 300 300 300 299 298 298 299 298 298 298 298 299 299 298 298 298 297 297
327 326 326 326 325 322 318 313 310 308 305 302 300 300 300 300 300 300 300 300 300 300 300 300 300 299 299 299 299 299 299 299 300 301 300 300 299 298 297 298 298 298 299 299 299 299 300 300 300 301 300 298 297 297 297 297 297 297 297 297 297 298 298 299 299 299 300 301 301 301 300 298 297 299 299 298 298 298 298 298 298 298 298 298 298
327 326 326 326 325 322 318 313 310 308 304 301 300 300 300 300 300 300 300 299 299 299 299 299 299 299 299 299 299 299 299 299 299 300 299 299 298 298 298 298 298 298 299 299 299 299 299 300 301 301 299 297 297 296 296 297 297 297 297 297 297 298 298 299 299 299 300 300 300 301 300 297 297 299 299 299 298 297 297 298 298 298 298 298 298
327 327 327 326 324 322 318 313 310 307 303 301 300 300 300 300 300 300 300 299 299 299 299 299 299 299 299 299 299 299 299 299 298 298 298 298 298 298 298 298 298 299 299 299 299 298 299 299 299 299 298 297 296 296 296 296 296 296 297 297 297 298 298 298 299 299 300 300 300 300 299 297 297 298 298 299 298 297 297 297 297 297 297 297 298
327 327 326 325 324 321 317 312 309 306 303 300 300 300 300 300 300 299 299 299 299 299 299 299 299 299 299 299 299 299 299 298 298 298 298 298 298 298 298 298 298 298 298 299 299 298 298 298 298 297 297 296 296 296 296 296 296 296 297 297 297 297 298 298 298 299 300 300 300 300 300 297 297 298 298 298 297 297 297 297 297 297 297 297 298
327 326 326 325 323 320 315 310 307 305 302 300 299 299 299 299 299 299 299 299 299 299 299 298 298 299 299 299 299 298 298 298 297 298 298 298 297 298 298 298 298 298 298 298 298 298 298 298 297 297 296 296 296 296 296 296 296 296 296 297 297 297 298 298 299 299 299 300 300 300 300 297 296 297 297 296 296 297 297 296 296 297 297 297 298
326 325 325 324 322 317 312 308 306 304 301 300 299 299 299 299 299 299 299 299 299 298 298 298 298 298 299 298 298 298 297 297 297 297 297 297 297 297 298 298 298 298 298 298 298 298 297 297 297 297 296 296 296 295 295 295 296 296 297 297 297 297 297 298 299 299 299 299 300 300 299 298 296 297 296 296 296 297 297 296 296 296 296 296 297
325 325 324 322 319 315 310 307 305 303 300 299 299 299 299 299 299 299 299 299 298 298 299 299 299 299 298 298 297 297 297 297 297 297 297 297 297 297 297 297 297 298 298 298 298 297 297 297 297 296 296 296 296 296 296 296 296 296 297 297 297 297 297 297 298 299 299 299 300 300 299 298 297 297 296 296 296 297 297 296 295 296 296 296 297
325 324 323 320 317 314 310 307 304 302 300 299 299 299 299 299 299 299 299 299 299 299 299 300 300 299 298 298 297 297 297 296 296 297 297 297 297 297 297 297 297 297 297 298 297 297 297 297 296 296 296 296 297 298 298 298 298 297 297 297 297 297 298 298 298 298 299 299 300 299 299 299 298 298 297 296 296 297 297 296 295 295 296 296 297
324 323 321 318 316 313 310 307 305 303 300 299 299 299 298 298 299 299 299 299 299 299 299 299 301 299 298 298 298 297 296 296 296 296 297 297 297 297 297 297 297 297 297 297 297 297 297 296 296 296 297 297 298 299 299 299 299 298 297 297 297 297 299 299 299 299 299 299 300 299 298 299 299 298 297 296 297 297 297 296 295 295 295 295 296
323 321 319 317 315 312 309 306 305 303 301 299 299 299 298 298 298 298 299 299 299 299 299 299 300 299 298 298 297 296 296 296 296 296 296 297 297 297 297 297 297 297 297 297 297 297 296 296 296 297 298 299 299 299 299 299 299 299 298 297 297 298 299 299 299 299 299 299 299 299 298 298 299 299 298 297 297 297 297 296 295 295 295 295 296
323 320 318 316 314 311 308 307 306 304 302 300 299 299 298 298 298 298 298 298 298 298 299 299 299 298 298 298 297 296 296 296 296 296 296 297 297 297 297 296 297 298 298 297 297 296 296 296 296 297 299 300 300 299 299 299 299 299 299 298 297 298 299 299 299 298 298 299 299 299 298 298 299 299 298 297 297 297 297 296 296 295 295 294 295
323 320 317 316 314 311 309 307 306 304 303 301 300 299 299 298 298 298 298 298 298 298 299 299 298 298 297 297 296 296 296 296 296 296 296 297 297 297 297 297 297 298 299 298 297 296 296 296 296 298 300 300 300 300 300 299 299 300 299 298 298 298 298 298 298 298 298 299 299 299 298 298 298 298 297 297 297 297 297 297 296 295 295 294 294
322 320 318 316 314 312 309 307 306 305 303 302 301 300 299 298 298 298 298 298 298 298 298 298 298 298 297 296 296 296 296 296 296 296 296 297 297 297 297 297 297 298 299 299 298 297 296 296 297 299 300 300 300 300 300 300 300 299 299 298 299 299 298 298 298 298 298 299 299 298 298 298 298 298 297 297 297 296 296 297 296 295 294 294 293
321 319 317 316 314 312 310 308 307 306 304 303 302 301 300 299 298 298 297 297 298 298 297 297 297 297 297 296 296 296 296 296 296 296 296 296 296 297 297 297 298 299 300 299 298 297 296 296 298 300 300 300 300 300 300 300 300 299 298 299 299 298 298 298 298 298 298 299 298 298 298 298 298 298 297 296 296 296 296 297 296 295 294 294 294
320 318 316 315 313 311 310 309 307 306 305 304 302 302 301 300 299 298 297 297 298 298 298 298 298 299 299 297 296 296 297 297 296 296 296 296 296 296 296 297 299 300 300 300 299 297 296 297 299 300 300 300 300 300 300 300 299 299 299 299 298 298 298 298 298 298 298 298 298 298 299 299 298 298 297 297 296 297 297 297 297 296 295 295 295
320 318 316 315 313 311 310 309 308 307 306 304 303 302 301 300 299 298 297 297 297 298 298 299 300 300 300 299 297 297 298 298 296 296 296 296 296 296 296 297 298 299 299 299 298 296 296 298 300 300 300 300 300 300 300 300 299 299 299 299 298 298 298 298 298 298 298 298 298 298 299 299 298 298 298 297 297 297 297 297 297 297 296 296 296
320 318 316 314 312 310 310 309 309 308 307 306 304 302 301 300 300 298 297 298 298 298 298 299 299 300 300 299 297 297 297 298 297 296 296 296 296 296 296 296 297 297 298 297 296 296 296 298 299 300 300 300 300 300 300 299 299 299 299 299 298 298 298 298 298 298 298 297 298 299 299 299 298 298 298 298 298 298 297 297 297 298 297 297 297
Wind_Speed
5 8 8 8 7 6 7 8 9 7 6 7 6 6 6 5 5 6 7 5 5 7 4 2 2 3 2 3 3 2 2 1 0 1 1 2 2 2 3 5 6 6 6 6 6 6 6 7 9 10 12 12 13 15 17 19 21 21 22 22 22 21 21 21 20 19 16 15 15 15 16 16 15 16 16 14 13 14 15 15 16 16 16 16 16
6 6 5 5 5 6 7 7 6 4 5 6 5 6 7 7 6 6 7 6 5 5 2 1 1 1 2 1 1 1 1 1 1 2 2 2 1 2 3 4 5 5 6 8 8 7 8 9 11 12 13 14 14 16 18 20 21 21 21 21 21 21 21 21 22 21 21 19 18 17 18 19 18 18 19 18 16 16 16 16 16 16 17 17 17
7 6 5 5 7 7 6 6 6 6 6 8 7 7 7 8 8 7 7 6 4 3 1 2 4 3 2 2 1 1 0 2 3 2 1 1 1 2 3 4 5 5 8 11 9 8 10 12 13 14 14 14 14 15 17 18 18 18 19 19 19 19 20 21 22 22 22 22 21 20 19 20 20 20 20 19 19 19 20 19 18 17 17 18 19
8 7 6 6 7 8 7 8 8 8 8 9 9 8 8 9 8 6 6 4 4 4 2 5 8 6 3 3 3 2 2 3 3 1 1 1 3 4 6 7 8 9 11 12 10 11 12 12 13 13 13 13 13 14 15 15 16 17 18 19 19 20 20 21 21 21 22 22 21 21 20 20 20 20 21 20 20 21 22 22 22 20 17 16 18
8 7 7 8 8 8 8 10 10 9 9 9 9 9 8 9 8 6 6 5 4 2 3 7 7 5 4 5 4 3 3 2 1 1 2 2 3 6 8 9 11 13 14 13 12 12 12 12 12 12 12 13 13 14 15 15 17 18 19 20 20 21 21 21 21 21 22 21 21 21 21 20 20 19 20 20 20 21 22 23 24 23 19 17 18
8 7 8 8 9 8 9 11 10 9 9 9 10 9 8 8 8 7 7 7 6 4 5 7 5 4 5 5 6 5 5 4 2 1 1 3 4 7 9 11 14 16 16 15 14 13 11 11 11 11 12 12 13 14 15 17 18 19 20 21 21 21 22 22 22 22 23 23 22 22 22 21 21 20 20 20 19 19 21 22 23 23 21 19 19
8 7 9 9 8 8 9 10 9 8 9 9 9 9 9 10 9 9 9 8 8 7 6 6 5 5 7 8 8 7 6 6 5 5 2 3 4 6 9 11 13 15 14 14 14 13 12 12 12 11 11 12 13 15 16 18 18 19 19 20 20 21 22 22 23 24 24 25 25 25 25 24 24 23 23 22 20 19 19 19 21 23 23 21 20
8 7 8 9 9 8 8 9 10 10 10 9 9 9 10 11 10 11 11 7 6 6 7 8 6 7 9 10 10 8 7 8 8 7 6 5 5 5 7 9 10 10 10 10 10 11 12 12 13 13 13 13 14 15 15 17 17 18 19 20 20 21 21 22 23 24 24 25 25 26 26 26 26 26 25 24 22 20 19 19 19 21 23 23 22
9 8 8 9 10 9 7 8 10 11 10 9 9 10 11 11 10 11 12 8 6 6 7 7 8 10 11 11 10 9 8 8 8 7 7 6 5 5 6 7 7 6 5 6 8 9 10 11 12 14 15 15 15 15 15 16 18 18 19 20 20 21 22 22 23 23 24 24 25 26 27 27 27 27 26 25 23 23 21 19 19 20 22 23 23
10 10 9 9 10 9 8 8 10 11 10 10 11 11 11 11 10 11 13 11 7 7 6 6 9 12 13 12 10 9 8 7 6 5 6 6 7 6 6 6 6 5 5 7 8 9 10 11 12 13 14 14 15 16 16 17 18 19 19 20 20 21 22 22 23 24 25 26 26 27 28 28 28 28 27 26 25 25 24 22 21 20 20 21 22
10 10 10 9 9 10 9 9 10 11 11 11 12 12 11 12 11 12 14 13 9 7 8 8 10 13 13 12 11 9 7 5 4 4 4 4 5 6 7 6 6 6 6 7 9 9 10 11 12 12 13 14 15 16 16 17 18 19 21 21 22 24 25 25 25 26 26 27 27 28 29 29 29 29 28 28 28 27 25 24 25 24 20 20 22
10 10 10 9 9 10 10 10 11 11 12 12 13 13 13 12 12 12 14 14 11 9 10 11 11 13 13 11 11 9 6 4 3 2 2 3 5 6 7 7 7 7 7 8 9 9 10 11 12 13 13 14 15 16 16 18 20 21 23 24 26 28 29 29 27 26 26 26 26 27 28 28 28 29 29 28 27 26 25 23 26 28 25 22 22
10 11 10 9 9 10 11 11 12 13 13 14 13 14 14 13 13 14 13 13 12 11 13 13 13 13 13 12 11 9 5 2 1 1 4 6 7 7 7 7 7 8 9 9 9 9 10 11 12 12 13 15 16 17 18 20 21 22 25 26 28 30 30 30 27 24 23 24 25 25 27 29 29 30 29 26 24 25 25 24 25 27 27 25 22
11 11 11 10 10 11 12 13 14 14 14 15 14 14 14 13 14 15 14 13 12 12 15 16 15 13 12 12 11 8 5 2 1 2 5 7 8 8 8 8 7 8 9 9 9 9 10 11 12 13 14 16 18 19 20 22 23 23 26 28 30 31 30 31 27 23 25 27 27 26 27 28 30 31 30 27 26 27 27 26 26 25 26 27 24
11 11 11 11 12 12 13 14 14 14 15 16 15 14 13 12 13 15 16 15 13 13 18 19 17 15 12 11 10 8 5 3 3 3 4 6 8 9 9 9 8 7 8 9 10 11 12 12 13 15 17 19 21 22 23 23 23 24 27 29 31 31 30 31 28 25 28 30 30 30 28 27 28 30 31 30 30 29 28 27 27 27 27 28 26
11 10 11 12 14 14 15 15 15 15 15 15 14 14 13 13 14 15 16 16 13 12 18 21 18 17 13 10 9 8 5 4 4 5 4 6 8 9 10 9 9 8 8 10 12 13 15 15 17 19 20 22 24 24 24 22 22 25 28 29 31 32 31 32 30 28 29 30 31 30 27 28 27 26 27 29 29 28 28 28 28 27 26 27 26
12 11 12 13 14 15 15 15 15 15 14 14 13 12 13 15 15 16 16 15 13 12 17 21 18 16 14 11 9 7 7 6 6 6 5 6 7 8 8 9 12 12 9 10 11 13 17 19 21 22 24 25 24 24 23 21 22 25 28 30 32 32 31 32 31 30 29 29 31 30 27 28 27 27 27 27 29 29 29 29 28 26 25 25 25
13 13 14 14 15 15 14 14 14 14 14 13 12 11 13 15 15 16 15 14 14 13 15 20 19 15 15 14 11 7 7 8 9 7 6 6 5 6 6 7 12 15 13 10 10 14 19 22 24 24 24 24 22 22 22 20 22 25 28 31 32 30 30 32 31 30 29 29 32 31 28 27 28 29 30 29 29 30 29 29 28 27 26 25 25
15 15 16 15 15 14 14 13 13 14 13 12 11 11 13 14 13 15 15 14 14 14 14 17 19 17 15 16 13 8 6 9 8 6 6 6 5 5 6 7 8 13 16 12 12 17 21 22 22 22 22 22 21 20 20 21 25 27 30 32 30 28 29 31 31 29 29 30 32 32 30 29 30 31 30 30 30 30 29 28 26 25 25 24 24
16 16 16 15 15 14 14 14 14 14 12 11 10 11 12 12 12 15 16 16 15 14 14 15 17 17 16 15 14 11 10 9 7 5 6 7 6 4 6 7 7 11 15 15 16 18 21 20 18 19 19 20 19 19 19 23 27 28 31 31 28 27 28 30 31 29 28 30 31 33 33 33 33 32 31 31 31 30 29 28 26 25 24 24 24
18 17 16 16 15 14 14 14 13 13 10 9 10 11 11 11 12 14 16 18 16 12 12 13 15 15 15 14 14 13 11 10 9 6 6 7 8 6 5 6 7 9 12 14 16 16 18 17 14 15 17 18 18 18 20 24 27 28 30 29 26 26 27 29 31 28 27 29 30 33 35 36 36 33 33 33 31 29 28 28 28 27 26 25 25
17 17 17 16 15 15 14 12 12 11 8 8 11 12 12 12 13 13 14 16 15 11 10 11 12 13 13 12 13 13 13 12 12 10 7 6 6 6 5 5 5 7 9 12 14 15 15 13 10 12 15 16 18 19 22 25 26 27 28 27 24 25 27 29 29 26 25 28 30 33 37 40 39 37 37 35 31 29 28 29 29 28 28 26 25
17 17 16 16 15 15 14 12 11 10 8 10 12 12 13 12 12 13 13 14 13 11 10 10 11 11 10 10 11 13 14 14 13 12 10 8 7 7 5 4 4 5 7 9 12 13 11 8 7 11 13 15 17 19 24 25 24 25 27 24 22 25 27 27 26 24 25 27 31 35 39 42 42 41 42 38 31 29 29 29 29 28 28 27 26
18 17 16 16 15 14 13 12 11 10 10 11 12 12 11 11 11 12 13 13 12 11 11 11 10 10 9 9 9 10 11 11 11 11 10 11 9 9 8 5 4 5 6 8 9 9 7 6 7 10 12 15 16 20 23 24 24 25 25 22 21 24 25 24 22 22 26 28 32 36 38 42 44 44 45 41 34 32 31 30 30 29 28 27 27
18 17 17 16 15 14 12 10 10 10 11 12 12 11 9 9 10 12 12 12 12 11 11 11 10 10 9 9 8 8 8 8 8 8 9 11 10 9 10 9 7 7 8 8 5 4 4 4 6 8 11 14 16 20 23 23 23 24 24 21 21 23 23 21 21 23 27 29 31 35 38 41 44 44 44 41 37 37 36 31 30 29 29 29 28
18 17 17 16 16 13 9 8 8 9 11 12 11 10 9 10 11 11 12 12 12 11 11 10 10 10 9 9 9 8 8 7 7 6 7 9 9 10 13 11 10 12 10 6 2 1 3 1 4 6 12 14 15 19 21 22 23 24 23 20 20 22 20 19 21 25 27 29 31 34 38 41 43 43 44 41 37 39 38 33 30 29 30 30 28
18 17 17 16 15 11 7 8 8 9 11 11 10 9 10 12 12 12 12 12 12 11 11 10 9 9 9 8 8 8 7 7 6 6 6 7 7 10 13 12 12 13 9 5 2 3 1 1 3 9 14 15 15 18 20 21 22 23 22 21 20 20 18 18 21 24 26 27 30 33 37 40 41 42 43 43 41 40 38 35 32 30 30 29 25
18 17 17 15 11 7 5 7 8 10 12 11 10 10 11 13 13 14 14 13 12 11 11 10 10 10 9 8 8 8 8 6 5 5 5 6 7 10 13 13 12 12 8 4 2 4 3 2 6 12 16 16 16 17 19 20 22 22 21 20 20 19 18 19 21 23 25 26 29 32 35 38 39 41 45 45 43 41 39 37 35 32 31 29 26
19 17 15 11 7 5 4 6 9 12 13 12 11 12 13 14 14 14 15 14 13 12 11 11 10 10 9 9 9 8 8 6 5 5 6 6 7 9 11 11 10 11 8 5 3 3 4 5 8 12 16 16 15 16 18 19 21 21 21 20 19 19 19 19 21 23 24 25 28 31 34 36 38 41 44 43 42 42 41 40 36 33 31 30 29
19 16 12 8 7 7 7 9 12 14 14 13 13 13 13 14 15 15 15 14 14 13 12 11 11 10 10 10 9 8 8 7 5 5 7 8 8 8 8 7 7 10 10 6 3 3 4 6 9 12 15 15 15 16 17 19 20 21 20 19 19 19 19 20 22 23 24 26 28 31 33 35 38 40 42 42 41 41 40 39 37 35 33 32 32
18 13 10 8 8 8 10 13 14 15 14 13 13 13 14 15 15 15 15 14 14 13 13 12 12 11 11 11 10 9 8 8 8 8 8 9 9 9 8 7 6 7 8 7 4 3 5 7 9 12 14 14 15 17 17 18 20 20 20 19 18 18 19 21 22 24 26 27 29 31 32 34 37 39 41 42 40 38 38 39 38 37 37 37 37
16 12 9 7 8 9 12 15 15 14 13 12 13 13 14 15 16 15 15 15 13 13 13 12 12 12 12 11 10 10 10 10 10 10 10 9 8 8 8 7 6 6 6 6 6 5 6 7 8 11 13 13 15 17 17 18 19 19 19 19 18 18 19 21 23 25 27 28 30 30 30 33 36 37 40 43 40 38 37 37 38 39 39 38 38
15 12 9 7 8 10 14 15 15 13 12 12 13 15 15 16 16 16 15 15 14 14 13 13 12 12 11 11 10 10 11 12 12 12 10 9 8 8 8 6 6 6 6 6 6 6 6 6 9 12 13 13 14 17 18 19 20 20 20 18 18 18 20 22 24 26 27 29 31 30 30 33 33 34 39 44 45 42 38 38 41 43 42 40 38
15 12 9 8 9 11 14 15 14 13 12 13 14 16 16 17 17 17 16 15 15 14 14 13 13 12 11 10 10 10 11 12 12 11 10 9 8 8 8 6 5 5 4 5 5 6 6 7 9 12 13 12 14 16 18 19 20 22 22 19 18 18 20 22 25 27 29 30 30 31 33 35 32 31 36 42 47 47 44 43 45 47 48 46 41
15 12 10 9 9 11 14 15 14 14 13 14 16 16 17 18 18 17 16 16 15 14 14 13 13 12 12 11 11 11 10 10 11 11 10 9 8 8 7 6 6 4 2 3 4 5 6 7 10 12 12 12 14 16 17 18 19 21 23 22 19 18 19 21 24 27 29 30 30 31 35 36 31 30 34 38 45 49 49 49 48 49 52 53 48
15 12 10 10 10 12 14 16 15 15 15 16 17 17 18 18 18 17 17 16 15 14 13 13 12 12 12 12 11 11 10 9 10 10 9 9 9 8 6 5 5 3 2 3 4 5 6 7 9 10 11 11 13 15 17 18 19 20 21 23 21 18 18 20 24 27 28 30 30 31 35 37 32 31 33 37 43 47 49 51 51 51 54 56 53
16 12 10 10 11 12 14 16 15 15 15 16 17 18 19 18 18 17 17 17 16 15 14 13 12 12 12 12 11 10 9 8 9 9 8 9 9 7 5 4 3 3 3 4 5 6 6 6 7 8 9 11 13 14 16 19 20 20 20 21 22 21 19 19 23 27 28 30 31 31 35 37 34 33 35 37 42 45 47 49 51 52 55 57 56
16 12 11 10 10 11 14 16 15 15 16 16 17 18 19 19 18 18 17 17 16 15 15 13 13 13 13 12 10 8 7 7 8 8 7 8 8 7 5 3 2 3 4 5 6 7 7 7 7 8 10 12 14 15 16 19 21 22 22 21 22 23 21 20 22 26 28 30 31 31 35 37 35 35 37 38 41 42 44 48 51 52 55 58 58
14 12 12 11 10 11 14 15 16 16 16 17 18 19 20 20 20 19 19 18 17 16 15 14 14 13 12 10 8 6 6 7 8 7 7 7 7 6 4 2 2 4 5 6 7 7 8 8 8 9 11 12 14 15 16 17 19 22 25 26 26 25 24 22 22 26 28 30 31 31 34 37 36 36 38 39 39 40 42 47 50 52 54 58 59
13 12 12 11 11 12 15 16 16 16 16 17 19 20 21 21 21 20 20 19 18 17 16 15 14 12 10 8 6 7 8 9 9 9 8 7 6 5 4 2 2 3 5 6 7 8 9 9 10 10 11 12 14 16 18 20 22 24 27 28 29 28 26 23 22 26 29 31 31 31 34 37 37 39 40 39 39 39 41 46 50 51 54 58 60
13 13 12 11 12 14 16 16 16 16 17 18 20 21 23 23 22 21 21 19 18 17 16 14 11 10 10 8 8 9 10 10 10 9 9 8 6 5 3 1 2 3 4 6 7 8 9 10 10 11 12 13 16 19 22 24 26 28 27 27 28 28 27 24 22 24 29 31 31 31 34 37 39 41 41 40 40 40 42 46 49 50 52 56 59
14 15 13 12 13 14 17 18 17 17 18 19 21 22 23 23 23 22 21 20 18 17 15 13 11 11 12 11 11 11 11 10 10 10 9 8 7 5 3 1 1 3 4 5 7 9 10 11 11 12 13 15 18 21 23 25 26 28 28 28 28 28 29 28 25 25 27 30 31 31 33 36 39 42 42 41 41 41 43 46 48 49 51 54 57
17 16 14 13 14 16 18 19 18 18 19 20 21 22 23 24 23 22 21 19 18 17 16 14 13 13 14 14 13 12 11 11 10 10 10 8 7 5 3 1 1 2 4 5 7 9 10 11 11 12 14 16 19 20 22 24 26 28 29 28 27 28 31 32 30 28 27 28 31 33 34 36 38 41 42 41 41 42 44 46 48 48 50 53 56
18 16 15 15 15 17 19 20 20 20 20 21 22 23 23 24 23 22 20 19 19 18 17 15 13 13 15 15 14 13 12 11 10 10 10 9 8 6 4 2 1 2 3 5 7 8 10 10 11 12 14 17 20 21 22 23 24 26 28 27 25 28 30 31 31 30 27 27 29 33 35 36 38 40 41 41 40 42 43 45 47 48 50 52 54
18 17 16 16 17 19 21 21 21 21 20 21 23 24 24 23 23 22 21 20 19 18 17 16 14 15 16 15 14 14 13 12 11 11 10 9 8 6 5 3 2 2 3 5 7 9 10 10 11 12 13 16 19 20 21 21 21 23 26 26 24 26 29 29 29 28 26 26 28 32 35 37 38 39 40 39 39 41 43 44 47 48 49 51 53
20 18 17 17 18 20 22 23 22 22 21 22 23 24 24 23 23 23 22 20 19 18 18 16 15 15 16 15 15 14 14 13 12 11 10 9 7 5 5 4 3 2 3 6 8 9 10 11 11 11 12 15 17 20 19 17 18 21 25 25 23 25 28 27 26 25 25 25 27 31 34 37 38 39 39 38 38 39 41 43 46 47 49 50 51
21 19 19 19 19 22 24 24 23 23 22 23 24 24 24 24 23 23 22 20 20 19 18 17 16 16 15 15 15 15 14 13 12 11 11 10 8 6 6 5 4 4 4 6 8 10 10 11 11 11 13 14 16 18 18 16 17 21 22 21 21 24 26 25 23 24 25 25 27 30 33 35 37 39 39 38 37 38 40 42 44 46 48 49 51
22 20 20 20 21 23 25 25 24 24 23 24 25 25 24 24 24 23 22 21 20 19 18 18 18 17 16 16 16 16 15 13 12 12 11 10 8 7 6 5 4 4 5 6 8 10 11 11 10 10 12 14 14 15 16 16 18 20 20 19 21 23 25 25 24 25 26 27 28 30 32 33 36 38 40 38 36 37 39 40 42 44 46 48 50
23 22 22 22 23 25 26 26 25 25 24 24 25 25 25 25 24 22 22 21 21 20 19 18 18 17 16 16 17 16 15 13 12 11 10 9 8 7 6 5 4 5 6 7 9 10 10 9 8 9 11 12 12 13 14 16 18 19 19 20 22 22 23 24 26 27 27 27 28 29 30 32 34 37 39 38 36 36 38 39 41 43 44 46 49
23 22 22 23 25 27 27 27 26 25 24 23 24 25 26 25 24 23 22 22 22 21 21 20 19 19 17 16 16 15 13 12 12 11 10 9 9 8 7 7 7 6 6 7 8 8 8 6 5 7 9 10 11 12 14 16 17 17 18 21 21 21 21 23 25 27 27 26 27 27 28 30 33 36 38 37 36 36 37 38 40 42 43 44 47
22 21 22 24 27 28 27 27 26 25 24 22 22 24 24 24 24 23 23 23 23 23 22 21 22 21 19 16 15 15 13 11 11 11 10 10 10 9 8 8 8 7 5 6 7 7 7 5 4 6 8 10 11 12 14 16 16 16 17 19 19 19 20 22 24 26 27 26 25 26 27 29 32 35 37 38 37 37 38 38 39 42 43 43 45
Wind_Direction
136 142 137 124 121 136 143 141 151 160 161 166 170 195 215 231 253 252 246 254 263 249 225 217 164 147 226 250 239 269 324 321 335 12 38 25 7 360 356 352 350 349 348 348 344 340 346 348 343 340 338 337 333 325 323 327 332 335 335 335 336 336 334 332 332 330 329 325 318 317 314 309 312 316 314 315 313 311 313 310 304 300 301 304 300
163 162 164 147 164 180 177 167 177 204 209 209 213 225 238 249 250 235 239 256 255 252 255 60 79 163 210 224 251 287 2 35 78 85 78 47 27 360 344 347 351 355 360 358 350 344 344 343 340 338 336 333 328 323 325 330 333 335 334 335 337 337 335 333 333 333 332 330 325 320 314 310 313 312 308 309 308 306 307 310 312 307 300 298 300
175 186 191 184 200 204 203 202 215 236 236 233 231 232 237 237 238 225 224 232 205 206 251 100 106 120 162 153 176 227 94 93 88 94 105 54 348 312 311 324 341 360 6 4 360 350 344 340 339 338 337 337 333 330 333 336 337 338 339 342 344 344 343 341 340 339 336 335 331 324 317 314 314 311 307 306 304 302 300 299 304 312 314 305 298
173 187 195 195 206 209 208 214 229 238 234 231 228 232 234 229 230 216 206 195 169 189 185 138 134 136 147 155 163 180 142 111 95 87 294 342 318 303 310 323 338 357 0 360 359 350 345 346 346 345 345 347 345 344 345 345 346 347 349 351 352 351 350 347 346 344 340 340 337 331 328 323 318 313 309 306 302 298 295 295 295 300 308 309 301
170 171 176 185 200 204 203 213 225 231 227 226 226 227 228 227 222 201 184 157 145 182 165 149 154 163 161 161 167 171 165 150 166 254 295 320 310 306 317 332 343 349 348 349 355 355 353 355 357 356 356 358 356 354 353 355 357 357 356 355 354 353 352 350 348 346 343 343 341 336 337 335 329 323 316 313 306 299 295 295 296 295 293 294 299
171 173 181 186 195 197 199 210 218 222 221 222 223 219 216 211 193 169 150 134 125 119 151 167 184 194 175 168 172 174 181 184 192 211 318 326 319 319 329 342 344 343 343 346 353 359 360 0 4 5 6 8 5 1 1 4 4 1 359 357 356 355 354 353 351 350 346 344 344 340 341 340 335 331 328 324 318 309 303 298 296 296 294 289 290
169 174 192 193 192 197 205 212 215 216 215 219 221 215 205 189 172 156 140 133 135 144 189 213 215 201 179 172 175 177 190 201 196 191 214 283 305 317 329 338 339 338 340 345 350 356 1 4 9 10 9 12 14 12 8 9 8 4 3 1 0 359 357 355 353 352 349 347 347 343 342 342 337 336 334 331 329 324 316 308 300 296 296 292 286
176 175 187 191 193 198 205 208 213 216 217 220 215 207 199 184 172 161 151 141 138 169 218 230 219 198 183 184 190 194 207 215 215 223 237 249 263 285 309 324 331 336 340 346 352 357 1 3 7 10 10 11 17 22 16 13 15 11 8 6 4 2 0 359 356 354 351 348 348 343 342 342 339 338 338 336 335 332 328 321 310 301 298 295 291
185 189 188 187 192 194 198 206 211 214 216 214 201 196 198 191 180 168 166 157 143 181 216 227 219 198 187 194 204 210 217 222 230 252 269 275 289 305 323 338 341 345 355 4 9 10 9 9 10 14 15 12 14 23 23 19 20 16 12 9 7 6 4 2 359 355 352 348 347 343 341 342 340 339 340 340 339 337 336 329 318 310 305 303 299
193 197 196 190 193 199 207 213 211 209 208 203 196 195 197 195 188 178 179 168 154 183 203 219 214 196 190 196 207 219 228 239 257 280 293 300 318 342 6 16 8 7 19 24 25 23 20 22 22 21 22 18 15 22 26 24 23 19 15 12 10 9 7 5 2 357 354 350 348 344 342 342 340 339 340 339 338 339 340 336 330 321 314 312 308
199 201 201 198 199 202 207 205 201 202 199 193 195 198 196 196 193 189 190 182 174 187 192 205 203 194 197 201 211 227 237 253 283 306 314 326 343 2 15 26 27 23 28 30 31 32 30 31 33 31 29 27 25 25 27 27 25 22 18 15 12 10 7 5 2 358 355 351 348 345 343 342 339 338 338 337 336 339 341 337 331 327 324 322 316
196 199 197 196 197 197 197 193 191 194 191 189 195 199 196 196 195 197 199 192 190 196 197 205 205 197 202 210 217 223 236 261 293 332 16 32 30 27 20 23 27 29 38 39 38 40 39 38 39 40 37 35 33 29 30 29 26 23 18 15 15 12 6 3 1 358 356 353 351 347 343 344 341 338 337 339 340 340 340 335 328 329 331 327 319
190 191 193 195 193 191 190 188 188 190 192 194 199 201 195 192 192 197 200 191 190 200 203 209 211 204 202 210 217 222 231 257 274 49 60 56 51 47 35 31 28 32 42 43 42 43 46 49 46 45 44 41 38 33 32 29 26 22 16 15 16 13 6 4 4 1 360 358 355 351 348 350 346 341 341 343 343 338 334 330 327 331 331 326 323
188 187 192 196 192 189 188 190 191 192 198 200 202 205 200 193 192 197 200 194 192 201 207 211 213 215 218 215 210 216 224 219 199 101 75 62 54 49 43 41 35 38 47 51 52 48 51 57 52 49 47 44 41 35 31 28 24 19 16 16 15 10 5 5 7 5 3 1 358 356 358 356 349 345 347 347 344 336 332 329 327 328 325 324 326
190 189 189 192 193 190 190 193 195 196 200 202 203 208 209 208 205 202 202 202 201 202 208 214 216 219 224 220 213 216 222 218 196 144 90 65 59 56 51 49 42 42 51 61 63 56 54 57 52 48 45 42 38 30 26 23 20 17 17 17 13 8 3 5 8 5 3 2 2 2 2 357 350 349 350 348 345 340 337 335 332 331 327 326 328
191 190 188 193 192 191 194 196 199 202 205 209 211 211 215 220 216 210 207 206 203 195 200 210 221 223 217 214 218 220 223 216 186 164 123 83 70 63 59 58 52 50 56 59 61 59 54 51 48 44 39 37 30 22 19 17 17 17 17 16 11 6 4 6 7 5 3 3 4 4 360 355 351 349 348 345 342 337 334 333 332 332 331 329 328
191 190 188 194 195 196 200 201 204 209 212 215 216 216 220 222 218 214 212 205 197 193 197 202 216 226 220 213 212 213 217 201 175 164 136 106 81 61 58 60 52 46 52 54 52 58 55 47 42 37 32 28 21 14 11 12 17 17 16 15 9 5 6 8 7 5 6 5 4 2 357 353 350 347 345 341 337 334 331 328 327 326 325 325 325
188 188 190 197 202 203 204 207 211 214 216 217 221 225 225 222 217 215 216 208 199 200 202 204 211 219 220 222 229 240 223 191 179 177 151 126 101 71 56 56 45 34 38 43 39 48 49 41 34 30 27 19 12 9 7 12 21 19 17 14 7 4 7 8 6 4 5 4 2 0 355 350 348 345 342 339 336 334 332 329 327 324 324 324 323
191 190 195 202 208 208 206 211 218 219 220 223 229 234 227 221 216 216 220 217 213 216 213 208 213 216 219 226 235 241 211 190 187 183 166 151 124 89 59 59 47 28 30 36 35 39 41 36 29 27 22 9 6 7 7 19 25 22 19 11 3 3 7 7 5 2 1 3 2 360 356 351 348 345 341 340 339 337 335 332 328 326 326 323 318
196 194 195 202 207 210 210 214 219 222 226 232 236 233 223 214 210 214 221 224 227 229 220 211 212 214 215 219 224 217 204 198 192 181 172 156 136 109 65 61 56 33 30 34 37 38 37 34 29 25 13 1 5 7 12 25 25 22 17 5 360 6 8 7 3 359 359 0 360 357 356 355 352 348 344 342 342 341 339 336 333 330 327 323 317
200 196 194 199 205 213 218 220 221 223 227 236 231 219 212 209 206 210 217 225 232 235 224 214 210 208 206 208 211 208 202 193 185 187 179 151 130 110 77 68 59 37 32 36 41 43 38 36 33 18 1 359 8 11 21 27 22 20 12 359 1 9 9 7 0 355 356 358 358 357 359 359 356 351 348 346 344 342 342 342 339 335 332 329 325
198 195 194 198 205 215 224 226 226 226 230 231 218 206 205 206 207 208 212 220 226 227 221 212 205 204 204 203 201 198 196 189 186 191 187 164 126 103 86 70 58 40 35 42 52 51 41 40 33 2 351 2 13 19 28 26 21 18 5 356 5 11 9 5 358 354 357 360 1 2 4 2 359 355 352 349 345 342 342 340 338 336 336 334 330
194 193 196 201 208 218 225 228 231 233 234 223 210 202 204 207 209 212 214 216 216 214 210 204 200 199 198 196 194 194 196 197 196 197 194 184 154 131 116 73 67 62 52 60 70 64 49 39 10 343 351 8 17 27 29 24 21 12 357 356 10 13 8 2 359 1 5 5 5 5 5 2 359 357 355 353 349 344 341 337 334 333 334 334 333
194 196 200 204 211 220 225 228 233 235 229 217 206 202 206 210 215 216 214 211 208 203 198 194 192 193 191 190 191 193 196 201 203 202 198 188 174 157 141 117 107 100 87 85 76 69 65 40 351 338 1 15 21 31 29 22 18 5 354 1 14 12 5 2 4 9 9 6 3 2 2 360 357 355 356 357 354 347 341 336 334 332 331 332 335
198 200 204 208 216 224 226 227 230 227 219 211 204 202 206 215 220 214 206 201 199 194 190 188 184 186 190 189 189 189 190 193 195 198 197 189 182 161 139 122 121 128 116 104 76 59 94 54 348 349 16 19 24 32 28 21 13 0 356 7 17 11 4 4 9 11 8 3 360 360 360 358 356 355 355 357 354 349 345 341 339 337 336 334 334
201 204 208 216 223 224 219 221 226 218 207 202 200 200 208 218 214 202 193 188 187 185 184 186 183 184 188 187 186 182 178 177 178 182 185 188 186 161 144 128 126 136 126 107 61 347 123 91 340 20 30 20 24 31 26 17 8 1 1 10 17 12 5 6 11 10 7 2 358 359 0 358 356 355 356 356 353 350 349 347 345 343 341 339 337
201 207 214 221 227 223 209 212 218 206 198 198 198 203 213 213 200 187 183 180 179 179 180 183 184 183 183 181 179 173 166 162 166 173 174 183 186 168 159 152 142 140 124 99 49 1 62 162 24 45 37 22 23 29 25 14 6 3 3 10 17 15 11 12 13 11 7 2 359 360 360 358 355 354 355 355 354 353 352 351 348 346 345 345 343
203 210 217 222 227 227 209 210 211 201 198 199 200 207 209 200 189 182 180 177 177 179 181 183 183 180 176 173 171 162 156 153 157 167 172 178 181 175 174 175 170 160 147 127 92 23 34 83 60 50 38 23 21 28 23 13 7 5 6 13 20 20 18 18 18 16 10 4 1 360 360 358 354 354 354 355 356 356 354 354 351 349 347 346 346
207 213 218 218 219 225 210 204 209 205 200 200 200 202 198 190 186 184 181 178 178 181 184 183 181 179 174 169 166 157 149 147 153 165 172 168 164 170 176 184 190 185 174 148 109 35 36 55 50 47 36 21 17 24 22 14 9 7 8 15 20 21 22 23 22 20 15 9 5 2 0 358 355 355 355 357 358 358 356 356 355 352 349 347 347
209 210 210 202 201 220 215 202 205 203 198 197 197 196 192 188 186 185 183 182 182 183 183 181 177 174 171 165 161 156 149 149 152 160 166 155 141 144 154 164 187 192 185 163 117 54 51 55 44 40 31 17 14 20 21 18 14 11 11 16 19 20 25 28 26 23 20 14 9 5 2 358 357 357 358 359 359 358 358 359 358 355 352 349 346
206 201 197 195 202 215 209 202 203 200 195 195 194 192 191 190 188 185 184 184 185 184 181 179 176 173 172 166 160 158 153 151 155 155 153 146 136 132 133 136 154 177 183 168 131 74 58 58 49 39 25 13 12 17 21 22 20 16 14 15 17 20 27 32 30 26 22 16 11 8 3 359 358 360 2 1 359 359 360 1 0 358 354 350 346
200 193 191 201 209 208 204 203 203 199 194 193 193 193 193 193 189 186 185 184 186 186 182 179 179 177 176 171 166 165 160 158 158 151 138 130 134 136 129 128 136 146 153 148 128 91 59 50 48 37 22 13 10 14 21 24 22 20 17 15 15 19 29 34 32 28 22 17 14 11 5 359 0 4 6 4 2 3 3 2 0 357 352 348 346
197 191 194 207 213 209 206 204 201 197 195 193 194 196 196 193 189 187 187 186 186 187 184 182 181 179 178 176 174 172 170 167 162 152 141 135 141 143 133 126 128 130 129 124 117 100 71 54 49 36 18 10 9 12 18 21 21 20 18 17 15 19 29 33 31 29 25 19 15 13 6 1 0 4 6 6 5 6 6 2 0 358 354 349 343
195 194 200 212 219 215 209 203 199 198 198 197 198 198 197 194 190 189 189 188 188 189 188 187 184 180 179 180 179 178 181 179 170 162 159 156 155 152 145 140 132 127 124 113 102 90 70 52 46 31 14 8 9 12 16 18 19 18 15 16 16 18 28 32 31 29 25 20 15 10 5 0 358 359 1 2 4 5 7 4 1 0 359 355 347
196 199 206 219 227 221 210 203 200 200 200 201 201 199 198 197 194 191 190 190 191 192 193 193 189 183 182 184 185 185 189 187 177 174 173 166 163 164 159 149 134 123 109 86 76 69 58 47 37 21 6 6 11 13 15 17 19 18 15 15 17 18 25 31 30 27 24 20 13 6 3 360 359 359 357 358 360 2 4 5 2 360 359 357 353
199 202 208 221 229 222 210 204 203 203 204 204 201 200 199 200 198 195 193 193 192 194 195 193 190 186 187 190 191 192 194 189 178 179 178 167 167 174 168 141 121 106 65 47 47 43 44 44 34 13 359 8 16 14 13 16 20 21 18 15 18 22 25 30 29 24 23 20 13 5 2 1 2 1 357 356 358 359 2 3 2 360 359 357 355
202 205 212 222 228 221 210 205 205 206 207 206 204 202 201 202 201 199 197 194 193 194 195 193 191 190 193 197 197 195 195 189 181 182 180 167 164 167 154 118 94 65 34 24 27 29 30 31 29 15 4 15 22 18 15 16 17 21 23 20 21 24 25 28 29 25 21 17 11 5 1 1 5 6 1 359 359 359 2 3 2 0 359 357 356
204 207 215 224 228 222 211 206 207 209 210 208 206 204 204 204 202 201 198 195 195 196 195 195 196 197 200 203 201 194 191 187 185 185 179 167 159 149 134 111 71 36 26 23 25 27 25 18 19 20 14 16 21 19 19 20 18 17 20 21 24 27 25 26 27 24 21 15 9 4 360 1 8 10 7 4 1 1 2 3 2 1 359 358 357
205 210 216 223 228 222 212 207 209 212 212 210 206 205 206 205 203 201 199 197 198 198 197 199 201 202 205 206 198 188 183 182 183 181 172 165 159 146 134 117 58 29 23 25 25 25 24 17 15 20 18 16 18 19 19 23 25 21 17 15 19 24 26 26 22 18 17 13 8 4 0 3 11 13 10 8 4 2 3 3 3 2 359 358 358
206 213 218 223 223 218 212 210 210 212 212 211 208 206 206 205 204 203 201 201 201 199 198 200 203 205 206 200 187 181 184 184 181 175 167 164 164 156 144 119 51 27 23 27 26 25 25 19 15 17 17 15 16 20 22 24 25 23 18 14 14 17 21 25 22 15 11 9 5 3 1 4 11 15 12 10 7 4 3 3 3 2 360 358 358
207 213 218 220 218 215 212 210 211 212 213 212 210 209 208 207 206 205 204 204 203 203 202 202 207 210 203 192 188 190 192 190 184 177 172 170 171 168 159 123 39 23 22 26 26 24 23 20 17 16 15 16 18 20 23 23 21 18 14 12 13 15 16 20 24 18 9 4 2 3 3 4 8 13 12 10 9 8 5 5 4 2 0 359 359
212 214 213 212 214 216 213 210 210 212 213 213 212 211 211 211 209 208 207 206 207 209 209 207 210 208 198 193 197 198 197 194 189 184 181 178 177 176 180 176 27 17 18 24 26 24 19 16 15 13 14 20 23 21 20 19 17 13 10 8 10 13 12 12 16 19 11 3 359 1 5 5 6 10 12 10 11 10 8 7 5 3 1 360 0
212 212 209 208 213 217 215 213 212 213 213 213 214 213 213 213 213 212 210 209 211 213 213 213 211 203 198 200 202 200 199 199 196 192 189 186 184 187 196 209 3 7 15 22 24 22 16 12 12 9 11 19 22 19 15 13 13 10 6 5 6 8 8 5 5 10 11 3 358 359 5 7 6 8 10 10 11 11 10 8 6 5 4 2 2
208 209 207 208 213 215 215 215 215 215 215 214 215 216 215 214 215 215 213 212 212 213 215 218 211 201 201 204 201 199 201 202 202 201 198 194 193 196 202 218 294 352 15 21 22 19 11 7 8 6 9 17 18 16 12 9 9 7 2 1 4 4 4 2 1 4 9 6 359 358 2 6 6 6 8 11 11 12 12 10 8 8 7 4 4
209 208 207 209 214 215 215 217 217 216 216 215 216 218 217 216 216 215 214 213 213 215 219 221 211 202 206 207 201 201 204 204 204 208 208 205 205 210 215 228 260 319 17 21 16 11 4 1 2 4 11 15 13 13 12 5 3 3 360 359 1 0 359 0 0 4 10 8 1 358 0 4 6 5 6 10 12 12 12 10 9 9 9 7 6
210 208 208 211 215 216 218 220 219 218 217 217 218 219 219 218 217 215 215 213 213 217 222 222 214 208 209 208 204 203 206 207 207 211 215 214 217 228 239 249 271 313 6 13 5 360 356 354 354 4 16 16 10 9 9 4 0 0 357 357 358 357 355 357 1 9 14 12 4 359 359 2 5 3 4 8 11 13 12 10 10 11 10 9 9
211 209 212 216 219 220 221 222 221 219 218 218 220 221 221 220 218 217 215 212 213 217 220 219 216 213 210 208 207 207 208 209 209 209 212 213 215 227 245 261 285 320 349 355 349 348 350 348 353 9 18 16 11 7 4 3 359 355 354 357 358 353 351 356 5 13 17 16 10 2 358 1 4 2 2 6 10 13 14 12 10 12 13 12 12
210 209 212 217 221 221 222 222 222 220 219 219 221 223 222 222 220 217 214 213 214 217 218 216 216 216 212 208 209 212 209 207 209 209 210 214 220 230 248 267 290 311 327 336 338 342 346 349 359 16 16 11 10 6 360 357 353 350 354 1 359 352 351 356 2 7 13 16 11 3 359 2 6 3 1 6 11 13 15 14 11 13 15 14 14
209 209 212 217 220 222 222 223 222 221 219 219 221 223 224 224 222 217 213 212 214 215 214 215 217 219 218 213 215 217 210 202 206 211 213 221 229 239 251 260 278 297 313 327 331 333 338 345 3 16 12 6 6 3 355 349 350 354 1 2 357 353 353 356 357 359 7 13 10 3 359 1 5 5 2 6 14 16 15 16 15 15 16 15 15
211 211 214 217 218 221 224 225 225 224 223 223 224 225 225 225 223 219 214 211 212 213 212 213 217 221 223 221 223 226 218 205 208 213 217 225 234 242 249 257 274 292 308 317 317 320 324 330 359 15 6 2 4 360 350 347 355 4 6 1 357 354 355 356 355 356 2 10 8 2 359 360 3 5 3 5 13 19 18 17 17 17 16 16 16
214 213 215 216 216 219 223 227 228 228 227 228 229 227 226 225 221 218 214 210 212 214 214 216 220 223 227 227 228 234 232 222 218 219 221 227 235 242 249 261 279 295 303 303 308 318 319 318 353 14 5 2 4 355 345 350 5 12 5 360 0 359 357 358 359 358 359 4 6 2 358 359 2 5 5 3 5 13 18 19 18 17 17 16 15